Location: Le Rocchette
(44.3500°N, 7.8333°E)
Time: 09:55:54
(UTC+00:00)

Tianhe-1 - Visible Passes

Search period start: 25 June 2021 00:00
Search period end: 05 July 2021 00:00
Orbit: 375 x 385 km, 41.5° (Epoch: 25 June)

Date Brightness Start Highest point End Pass type
(mag) Time Alt. Az. Time Alt. Az. Time Alt. Az.
25 Jun 3.4 01:01:54 15° ESE 01:01:54 15° ESE 01:02:46 10° ESE visible
25 Jun 1.3 02:34:01 14° WSW 02:36:31 49° S 02:39:35 10° E visible
26 Jun 1.5 01:35:36 43° SSE 01:35:36 43° SSE 01:38:30 10° E visible
27 Jun 3.9 00:37:15 11° E 00:37:15 11° E 00:37:22 10° E visible
27 Jun 1.2 02:09:22 24° WSW 02:10:58 49° S 02:14:01 10° ESE visible
28 Jun 2.4 01:11:07 29° ESE 01:11:07 29° ESE 01:12:56 10° E visible
28 Jun 1.7 02:43:27 10° W 02:46:23 36° SSW 02:49:19 10° SE visible
29 Jun 1.3 01:45:12 44° SSW 01:45:18 44° S 01:48:19 10° ESE visible
30 Jun 2.0 02:19:40 23° SW 02:20:37 27° SSW 02:23:20 10° SE visible
01 Jul 3.0 02:54:44 12° SW 02:55:43 13° SSW 02:57:18 10° S visible
03 Jul 2.2 20:37:01 10° SSW 20:39:33 23° SSE 20:39:58 22° SE visible
04 Jul 1.5 21:11:44 10° WSW 21:14:29 39° S 21:14:29 39° S visible
